TimeEDT,TemperatureF,Dew PointF,Humidity,Sea Level PressureIn,VisibilityMPH,Wind Direction,Wind SpeedMPH,Gust SpeedMPH,PrecipitationIn,Events,Conditions,WindDirDegrees,DateUTC
12:54 AM,62.1,43.0,50,30.11,-9999.0,NE,11.5,18.4,N/A,,Unknown,40,2013-09-09 04:54:00
1:54 AM,61.0,43.0,52,30.12,-9999.0,NE,11.5,21.9,N/A,,Unknown,40,2013-09-09 05:54:00
2:54 AM,60.1,43.0,53,30.13,-9999.0,NE,10.4,-,N/A,,Unknown,50,2013-09-09 06:54:00
3:54 AM,59.0,43.0,55,30.14,-9999.0,NE,8.1,-,N/A,,Unknown,40,2013-09-09 07:54:00
4:54 AM,59.0,44.1,58,30.17,-9999.0,NNE,8.1,-,N/A,,Unknown,30,2013-09-09 08:54:00
5:54 AM,57.9,45.0,62,30.20,-9999.0,Variable,5.8,-,N/A,,Unknown,0,2013-09-09 09:54:00
6:54 AM,57.0,46.0,67,30.23,-9999.0,NNE,6.9,-,N/A,,Unknown,20,2013-09-09 10:54:00
7:54 AM,59.0,46.0,62,30.25,-9999.0,NNE,4.6,-,N/A,,Unknown,30,2013-09-09 11:54:00
8:54 AM,60.1,46.0,60,30.25,-9999.0,North,6.9,-,N/A,,Unknown,10,2013-09-09 12:54:00
9:54 AM,62.1,46.9,58,30.27,-9999.0,NE,4.6,-,N/A,,Unknown,40,2013-09-09 13:54:00
10:54 AM,64.0,48.9,58,30.26,-9999.0,NE,5.8,-,N/A,,Unknown,50,2013-09-09 14:54:00
11:54 AM,64.9,51.1,61,30.26,-9999.0,Calm,Calm,-,N/A,,Unknown,0,2013-09-09 15:54:00
12:54 PM,66.0,48.0,52,30.25,-9999.0,Calm,Calm,-,N/A,,Unknown,0,2013-09-09 16:54:00
1:54 PM,68.0,44.1,42,30.24,-9999.0,Variable,3.5,-,N/A,,Unknown,0,2013-09-09 17:54:00
2:54 PM,68.0,51.1,55,30.23,-9999.0,Variable,4.6,-,N/A,,Unknown,0,2013-09-09 18:54:00
3:54 PM,66.0,52.0,60,30.23,-9999.0,Variable,4.6,-,N/A,,Unknown,0,2013-09-09 19:54:00
4:54 PM,66.0,51.1,59,30.23,-9999.0,SSW,5.8,-,N/A,,Unknown,200,2013-09-09 20:54:00
5:54 PM,64.9,51.1,61,30.21,-9999.0,SSW,5.8,-,N/A,,Unknown,200,2013-09-09 21:54:00
6:54 PM,63.0,51.1,65,30.22,-9999.0,Calm,Calm,-,N/A,,Unknown,0,2013-09-09 22:54:00
7:54 PM,62.1,51.1,67,30.21,-9999.0,SSW,4.6,-,N/A,,Unknown,200,2013-09-09 23:54:00
8:54 PM,62.1,51.1,67,30.22,-9999.0,Variable,3.5,-,N/A,,Unknown,0,2013-09-10 00:54:00
9:54 PM,63.0,51.1,65,30.21,-9999.0,Calm,Calm,-,N/A,,Unknown,0,2013-09-10 01:54:00
10:54 PM,64.0,53.1,67,30.21,-9999.0,SSW,5.8,-,N/A,,Unknown,200,2013-09-10 02:54:00
11:54 PM,64.9,54.0,68,30.20,-9999.0,Variable,4.6,-,N/A,,Unknown,0,2013-09-10 03:54:00